sat.trackr.live / text

‹ back to catalog

STARLINK-32655

NORAD 62202 · 2024-229L

PAYLOAD ACTIVE UNKNOWN

§ Identity

Operator
Country
US
Launch date
2024-12-04
Launch site
AFETR
Launch vehicle
Mass (kg)
RCS (m²)

Purposes: comms

External: N2YO · Heavens-Above · Gunter

§ Orbital elements

Epoch: 2026-09-21T22:45:10.750176Z

Period
94.27 min
Inclination
42.9992°
Eccentricity
0.0001425
Mean motion
15.27596304 rev/d
Perigee alt
482.0 km
Apogee alt
484.0 km
Semi-major
6,861.1 km
B*
-1.4065e-5
RAAN
242.5993°
Arg perigee
248.8955°
Mean anomaly
111.1744°
Rev number
10,057

§ Raw data

STARLINK-326551 62202U 24229L   26264.94804109 -.00000649  00000+0 -14065-4 0  99962 62202  42.9992 242.5993 0001425 248.8955 111.1744 15.27596304100570

JSON: /api/v1/satellites/62202 · /tle

For live sub-satellite position, see the globe view (requires WebGL).

§ Visibility from observer

Set your observer location to see the next 7 days of passes ≥ 10°. The values pass through the URL so the page stays shareable.

No JS? Fill the form by hand. The geolocation button needs JavaScript.